Weather History for KOOA - July, 2013

Change the Weather History Date:

Monday, July 15, 2013

  Actual Average (KOTM) Record (KOTM)
Temperature  
Mean Temperature 76 °F 75 °F  
Max Temperature 87 °F 86 °F 115 °F (1936)
Min Temperature 65 °F 65 °F 47 °F (1930)
Degree Days  
Heating Degree Days 0 0  
Month to date heating degree days 0  
Since 1 June heating degree days 21  
Since 1 July heating degree days 0  
Cooling Degree Days 11 10  
Month to date cooling degree days 150  
Year to date cooling degree days 415  
Since 1 June cooling degree days 351  
Growing Degree Days 26 (Base 50)    
Moisture  
Dew Point 67 °F    
Average Humidity 73    
Maximum Humidity 91    
Minimum Humidity 54    
Precipitation  
Precipitation 0.11 in 0.15 in 2.27 in (1984)
Month to date precipitation 2.29  
Year to date precipitation 19.91  
Sea Level Pressure  
Sea Level Pressure 30.21 in    
Wind  
Wind Speed 5 mph (ESE)    
Max Wind Speed 10 mph    
Max Gust Speed -    
Visibility 9 miles    
Events Rain    
T = Trace of Precipitation, MM = Missing Value Source: NWS Daily Summary

Daily Weather History Graph

Daily Weather History Graph

Search for Another Location

Airport or City:

Trip Planner

Search our weather history database for the weather conditions in past years. The results will help you decide how hot, cold, wet, or windy it might be!

Date:

Astronomy

Jul. 15, 2013 Rise Set
Actual Time 5:50 AM CDT 8:41 PM CDT
Civil Twilight 5:17 AM CDT 9:13 PM CDT
Nautical Twilight 4:36 AM CDT 9:54 PM CDT
Astronomical Twilight 3:48 AM CDT 10:42 PM CDT
Moon 1:15 PM CDT (7/15) No Moon Set
Length of Visible Light 15h 56m
Length of Day
14h 50m
Waxing Crescent, 45% of the Moon is Illuminated
Jul 15
Waxing Crescent
Jul 15
First Quarter
Jul 22
Full
Jul 29
Last Quarter
Aug 6
New

Hourly Weather History & Observations

Time (CDT) Temp. Heat Index Dew Point Humidity Pressure Visibility Wind Dir Wind Speed Gust Speed Precip Events Conditions
12:15 AM 68.9 °F - 61.2 °F 76% 30.20 in 10.0 mi NE 4.6 mph - N/A   Clear
12:35 AM 67.8 °F - 61.0 °F 79% 30.19 in 10.0 mi NE 4.6 mph - N/A   Clear
12:55 AM 67.5 °F - 61.2 °F 80% 30.20 in 10.0 mi NE 5.8 mph - N/A   Clear
1:15 AM 67.3 °F - 61.3 °F 81% 30.20 in 10.0 mi NNE 4.6 mph - N/A   Clear
1:35 AM 67.3 °F - 61.2 °F 81% 30.20 in 10.0 mi NE 4.6 mph - N/A   Clear
1:55 AM 67.3 °F - 61.2 °F 81% 30.20 in 10.0 mi ENE 6.9 mph - N/A   Clear
2:15 AM 67.6 °F - 61.2 °F 80% 30.20 in 10.0 mi ENE 5.8 mph - N/A   Clear
2:35 AM 67.1 °F - 61.2 °F 81% 30.20 in 10.0 mi ENE 4.6 mph - N/A   Clear
2:55 AM 66.4 °F - 61.2 °F 83% 30.20 in 10.0 mi ENE 4.6 mph - N/A   Clear
3:15 AM 66.4 °F - 61.3 °F 84% 30.20 in 10.0 mi ENE 4.6 mph - N/A   Clear
3:35 AM 65.8 °F - 61.2 °F 85% 30.20 in 10.0 mi East 4.6 mph - N/A   Clear
3:55 AM 66.2 °F - 61.7 °F 85% 30.20 in 10.0 mi East 6.9 mph - N/A   Clear
4:15 AM 66.4 °F - 61.9 °F 85% 30.20 in 10.0 mi East 5.8 mph - N/A   Clear
4:35 AM 66.9 °F - 62.1 °F 84% 30.21 in 10.0 mi East 5.8 mph - N/A   Scattered Clouds
4:55 AM 68.0 °F - 62.6 °F 83% 30.20 in 10.0 mi East 5.8 mph - N/A   Mostly Cloudy
5:15 AM 68.0 °F - 62.6 °F 83% 30.21 in 10.0 mi East 4.6 mph - N/A   Scattered Clouds
5:35 AM 68.5 °F - 63.0 °F 82% 30.21 in 10.0 mi East 4.6 mph - N/A   Mostly Cloudy
5:55 AM 69.1 °F - 63.5 °F 82% 30.22 in 10.0 mi East 4.6 mph - N/A   Overcast
6:15 AM 69.8 °F - 63.9 °F 81% 30.22 in 7.0 mi ESE 3.5 mph - N/A Rain Light Rain
6:35 AM 68.5 °F - 64.8 °F 88% 30.22 in 5.0 mi ENE 4.6 mph - 0.05 in   Overcast
6:55 AM 68.5 °F - 64.9 °F 88% 30.23 in 4.0 mi NE 4.6 mph - 0.07 in Rain Rain
7:15 AM 69.1 °F - 65.7 °F 89% 30.23 in 5.0 mi ENE 4.6 mph - N/A   Mostly Cloudy
7:35 AM 69.8 °F - 66.0 °F 88% 30.23 in 7.0 mi Calm Calm - N/A   Mostly Cloudy
7:55 AM 70.2 °F - 66.2 °F 87% 30.25 in 7.0 mi South 6.9 mph - N/A   Overcast
8:15 AM 69.8 °F - 66.7 °F 90% 30.25 in 4.0 mi Calm Calm - 0.01 in Rain Light Rain
8:35 AM 70.3 °F - 67.6 °F 91% 30.25 in 2.0 mi Calm Calm - 0.04 in Rain Light Rain
8:55 AM 72.7 °F - 69.3 °F 89% 30.25 in 7.0 mi Calm Calm - 0.04 in   Overcast
9:15 AM 73.6 °F - 69.1 °F 86% 30.25 in 7.0 mi Calm Calm - N/A   Overcast
9:35 AM 74.5 °F - 68.9 °F 83% 30.26 in 10.0 mi Calm Calm - N/A   Overcast
9:55 AM 76.5 °F - 69.4 °F 79% 30.26 in 10.0 mi Calm Calm - N/A   Mostly Cloudy
10:15 AM 77.9 °F - 69.4 °F 75% 30.25 in 10.0 mi Calm Calm - N/A   Mostly Cloudy
10:35 AM 78.8 °F - 68.5 °F 71% 30.26 in 10.0 mi Calm Calm - N/A   Mostly Cloudy
10:55 AM 79.7 °F - 69.3 °F 70% 30.25 in 10.0 mi Calm Calm - N/A   Scattered Clouds
11:15 AM 81.5 °F 84.8 °F 69.3 °F 66% 30.26 in 10.0 mi Calm Calm - N/A   Mostly Cloudy
11:35 AM 81.9 °F 85.4 °F 69.4 °F 66% 30.25 in 10.0 mi Calm Calm - N/A   Scattered Clouds
11:55 AM 81.9 °F 85.8 °F 70.2 °F 68% 30.25 in 10.0 mi Calm Calm - N/A   Mostly Cloudy
12:15 PM 81.0 °F 84.6 °F 70.3 °F 70% 30.25 in 10.0 mi Calm Calm - N/A   Overcast
12:35 PM 82.8 °F 86.9 °F 70.5 °F 66% 30.25 in 10.0 mi Calm Calm - N/A   Mostly Cloudy
12:55 PM 83.3 °F 87.6 °F 70.5 °F 65% 30.24 in 10.0 mi Calm Calm - N/A   Mostly Cloudy
1:15 PM 82.0 °F 85.5 °F 69.4 °F 65% 30.24 in 10.0 mi Calm Calm - N/A   Mostly Cloudy
1:35 PM 82.6 °F 86.4 °F 69.6 °F 65% 30.24 in 10.0 mi East 3.5 mph - N/A   Overcast
1:55 PM 80.8 °F 84.4 °F 70.7 °F 71% 30.23 in 10.0 mi East 5.8 mph - N/A   Mostly Cloudy
2:15 PM 84.6 °F 88.8 °F 70.0 °F 61% 30.22 in 10.0 mi East 5.8 mph - N/A   Scattered Clouds
2:35 PM 84.2 °F 89.3 °F 71.2 °F 65% 30.22 in 10.0 mi SE 9.2 mph - N/A   Scattered Clouds
2:55 PM 84.6 °F 89.1 °F 70.3 °F 62% 30.21 in 10.0 mi SE 5.8 mph - N/A   Clear
3:15 PM 86.0 °F 89.7 °F 68.7 °F 56% 30.20 in 10.0 mi ESE 8.1 mph - N/A   Clear
3:35 PM 86.2 °F 89.4 °F 67.6 °F 54% 30.20 in 10.0 mi SE 8.1 mph - N/A   Clear
3:55 PM 86.9 °F 91.0 °F 69.1 °F 55% 30.19 in 10.0 mi SSE 8.1 mph - N/A   Clear
4:15 PM 86.9 °F 91.7 °F 69.8 °F 57% 30.19 in 10.0 mi ESE 10.4 mph - N/A   Clear
4:35 PM 87.3 °F 92.4 °F 70.5 °F 57% 30.19 in 10.0 mi SSE 8.1 mph - N/A   Clear
4:55 PM 86.9 °F 92.1 °F 70.3 °F 58% 30.18 in 10.0 mi SE 5.8 mph - N/A   Clear
5:15 PM 85.5 °F 89.4 °F 69.1 °F 58% 30.18 in 10.0 mi ESE 9.2 mph - N/A   Mostly Cloudy
5:35 PM 87.4 °F 91.5 °F 68.9 °F 54% 30.18 in 10.0 mi SSE 8.1 mph - N/A   Mostly Cloudy
5:55 PM 84.7 °F 88.2 °F 68.4 °F 58% 30.17 in 10.0 mi SE 4.6 mph - N/A   Mostly Cloudy
6:15 PM 84.9 °F 88.2 °F 68.2 °F 57% 30.17 in 10.0 mi SSE 9.2 mph - N/A   Scattered Clouds
6:35 PM 86.2 °F 90.0 °F 68.7 °F 56% 30.18 in 10.0 mi SE 9.2 mph - N/A   Scattered Clouds
6:55 PM 86.0 °F 89.4 °F 68.4 °F 55% 30.17 in 10.0 mi SE 9.2 mph - N/A   Scattered Clouds
7:15 PM 85.5 °F 89.1 °F 68.9 °F 57% 30.17 in 10.0 mi SE 8.1 mph - N/A   Clear
7:35 PM 84.2 °F 88.4 °F 69.8 °F 62% 30.18 in 10.0 mi SE 6.9 mph - N/A   Scattered Clouds
7:55 PM 83.1 °F 87.6 °F 70.5 °F 66% 30.18 in 10.0 mi SE 6.9 mph - N/A   Scattered Clouds
8:15 PM 81.9 °F 85.4 °F 69.4 °F 66% 30.18 in 10.0 mi SE 6.9 mph - N/A   Scattered Clouds
8:35 PM 80.4 °F 83.5 °F 69.3 °F 69% 30.18 in 10.0 mi SE 5.8 mph - N/A   Clear
8:55 PM 78.8 °F - 69.4 °F 73% 30.19 in 10.0 mi ESE 4.6 mph - N/A   Clear
9:15 PM 77.9 °F - 69.1 °F 74% 30.19 in 10.0 mi SSE 6.9 mph - N/A   Clear
9:35 PM 77.9 °F - 68.7 °F 73% 30.20 in 10.0 mi SE 6.9 mph - N/A   Clear
10:15 PM 76.3 °F - 68.4 °F 76% 30.22 in 10.0 mi SSE 5.8 mph - N/A   Clear
10:35 PM 75.4 °F - 68.4 °F 79% 30.22 in 10.0 mi SE 4.6 mph - N/A   Clear
10:55 PM 74.5 °F - 68.2 °F 81% 30.22 in 10.0 mi SE 4.6 mph - N/A   Clear
11:15 PM 74.1 °F - 68.2 °F 82% 30.23 in 10.0 mi SSE 3.5 mph - N/A   Clear
11:35 PM 73.9 °F - 68.4 °F 83% 30.23 in 10.0 mi SE 5.8 mph - N/A   Clear
11:55 PM 73.9 °F - 68.2 °F 82% 30.23 in 10.0 mi SE 4.6 mph - N/A   Clear